Portada
METAR-TAF:

METAR-TAF

Aeroports :

Yezd, Iran

latitud: 31-54N, longitud: 054-24E, altitud: 1238 m

Observació

L'informe es va fer fa 58 minuts, a les 00:00 UTC
Vent 2 kt del Nord/Nord-Oest
Temperatura 6°C
Humitat 61%
Pressió 1021 hPa
Visibilitat 10 km o més
Escasses núvols a una alçada de 10000 ft

METAR: OIYY 260000Z 34002KT 9999 FEW100 06/M01 Q1021

Hora: 04:28 (00:58 UTC)


TAF: manca

Observacions i pronòstics meteorològics de més de 4000 aeroports (METAR i TAF).

Les estacions disponibles són els punts grocs i vermells al mapa.

Posi el ratolí al punt desitjat per veure el nom de l'estació.

Feu clic per veure les observacions i els pronòstics meteorològics.

Per canviar el mapa: feu clic els botons verds amb una creu de color negre per apropar; al botó verd amb un guió per allunyar la imatge; o en les fletxes verdes per a mapes adjacents.


METAR-TAF: